SCOUT B R/B, 2206

Orbit data source: Space-Track

SCOUT B R/B, 2206 is space debris in LEO originally from a launch on Fri, 10 Jun 1966 UTC launched from the Wallops Island (WLPIS). Debris objects in space refer to the collection of defunct objects orbiting the Earth. Examples of debris include non-operational satellites, rocket bodies, and fragments generated from explosions, collisions, or faulty payload assembly.

Loading next visibility...
Identifier
2206, 1966-052B
Orbit
LEO
Country
Flag of USUS
Related business
Manufacturer
UTC
Mission
Spacecraft
Bus & Motor
FW4, Unknown motor
Mass
47 kg wet, 47 kg dry
Launch date (UTC)
1966-06-10 (60 years ago)
Launch vehicle
Unknown
Launch site
Wallops Island (WLPIS)
Object type
Payload
Rocket body
Debris
Shape & HBR
CYL, 0.8 m
Radar Cross Section
Medium (>0.1 m² and <1 m²)

Expand to show TLE details & history
Last TLE update: 1 day ago

TLE from 1 day ago
0 SCOUT B R/B
1  2206U 66052B   26246.22723372 -.00000103  00000-0 -12321-3 0  9995
2  2206  40.8686 204.4954 2211193 253.9594  80.7939 10.14646909210704
Epoch: 2026-09-03T05:27Z
TLE epoch observation values (Epoch: 2026-09-03T05:27:12.993Z)
Latitude
-0.00003°
Longitude
140.32279°
Altitude
2,753.727 km
Speed
6.565 km/s
True Right ascension
13h 37m 58s
True Declination
0° 00' 00"
Sunlit
Object was in daylight at epoch
Visualization orbit readout
Latitude
Unknown
Longitude
Unknown
Altitude
Unknown
Speed
Unknown
Apparent Right ascension
Unknown
Apparent Declination
Unknown
Sunlit
N/A
Visualization observer readout
Local Sidereal Time
01:37:08
Azimuth
Unknown
Elevation
Unknown
Doppler factor
Unknown
Orbital elements
Apogee altitude
4,629.846 km
Perigee altitude
643.212 km
Semi-major axis
9,014.666 km
Eccentricity
0.22112
Inclination
40.8686°
RAAN
204.4954°
Arg. of periapsis
253.9594°
True anomaly
106.10783°
Mean anomaly
80.7939°
Eccentric anomaly
93.44027°
Mean motion
2.53582 °/min
Orbital period
141.97 mins
BSTAR
-0.00012321
Loading maneuver chart data...
Computing Atmospheric mass density...
Loading historical data...
Loading historical data...
Loading historical data...
Loading historical data...
Loading historical data...
Loading historical data...
Loading historical data...
Other satellites on launch #52 in the year 1966 (1966-06-10 UTC)

Documentation

Showing up to 5 results
|